| time (UTC) | temp F | wind direction | speed knots | gust knots | rain 1hr in | rain 24hr in | rain mn in | humidity % | barometer mb |
| 20260506103026 | 75 | 0 | 0.0 | 0.9 | 0.00 | 0.00 | 0.00 | 88 | 1009.0 |
| 20260506101525 | 75 | 0 | 0.9 | 5.2 | 0.00 | 0.00 | 0.00 | 88 | 1008.7 |
| 20260506100028 | 75 | 268 | 0.0 | 3.5 | 0.00 | 0.00 | 0.00 | 88 | 1008.6 |
| 20260506094528 | 75 | 252 | 0.9 | 4.3 | 0.00 | 0.00 | 0.00 | 88 | 1008.3 |
| 20260506093034 | 75 | 248 | 0.0 | 4.3 | 0.00 | 0.00 | 0.00 | 88 | 1008.1 |
| 20260506091531 | 75 | 259 | 0.9 | 4.3 | 0.00 | 0.00 | 0.00 | 88 | 1008.0 |
| 20260506090027 | 75 | 253 | 0.9 | 5.2 | 0.00 | 0.00 | 0.00 | 88 | 1007.8 |
| 20260506084534 | 76 | 219 | 1.7 | 7.8 | 0.00 | 0.00 | 0.00 | 88 | 1007.9 |
| 20260506083030 | 76 | 255 | 1.7 | 3.5 | 0.00 | 0.00 | 0.00 | 88 | 1007.9 |
| 20260506081529 | 76 | 250 | 0.9 | 3.5 | 0.00 | 0.00 | 0.00 | 88 | 1007.9 |
| 20260506073028 | 76 | 214 | 0.9 | 3.5 | 0.00 | 0.00 | 0.00 | 87 | 1008.2 |
| 20260506071529 | 76 | 229 | 0.0 | 3.5 | 0.00 | 0.00 | 0.00 | 87 | 1008.5 |
| 20260506061528 | 76 | 263 | 1.7 | 4.3 | 0.00 | 0.00 | 0.00 | 87 | 1008.6 |
| 20260506044538 | 77 | 199 | 1.7 | 5.2 | 0.00 | 0.00 | 0.00 | 86 | 1008.6 |
| 20260506043030 | 77 | 57 | 0.0 | 3.5 | 0.00 | 0.00 | 0.00 | 86 | 1008.6 |
| 20260506041541 | 77 | 302 | 0.9 | 4.3 | 0.00 | 0.00 | 0.00 | 85 | 1008.3 |
| 20260506040033 | 77 | 271 | 0.0 | 1.7 | 0.00 | 0.00 | 0.00 | 85 | 1008.1 |
| 20260506034531 | 78 | 231 | 0.0 | 3.5 | 0.00 | 0.00 | 0.00 | 84 | 1007.9 |
| 20260506033026 | 78 | 0 | 0.0 | 4.3 | 0.00 | 0.00 | 0.00 | 84 | 1007.9 |
| 20260506031530 | 78 | 0 | 0.0 | 2.6 | 0.00 | 0.00 | 0.00 | 83 | 1007.6 |
| 20260506030030 | 78 | 330 | 0.0 | 4.3 | 0.00 | 0.00 | 0.00 | 82 | 1007.5 |
| 20260506024528 | 79 | 30 | 0.0 | 1.7 | 0.00 | 0.00 | 0.00 | 81 | 1007.4 |
| 20260506023030 | 79 | 333 | 0.9 | 4.3 | 0.00 | 0.00 | 0.00 | 80 | 1007.0 |
| 20260506021528 | 80 | 0 | 0.0 | 1.7 | 0.00 | 0.00 | 0.00 | 78 | 1006.6 |
| 20260506020026 | 80 | 108 | 0.0 | 3.5 | 0.00 | 0.00 | 0.00 | 77 | 1006.3 |
| 20260506014528 | 81 | 18 | 0.0 | 2.6 | 0.00 | 0.00 | 0.00 | 76 | 1006.1 |
| 20260506013032 | 81 | 79 | 0.9 | 2.6 | 0.00 | 0.00 | 0.00 | 75 | 1006.2 |
| 20260506011539 | 82 | 241 | 0.0 | 3.5 | 0.00 | 0.00 | 0.00 | 75 | 1006.3 |
| 20260506010029 | 82 | 0 | 0.0 | 2.6 | 0.00 | 0.00 | 0.00 | 74 | 1006.3 |
| 20260506004539 | 82 | 0 | 0.0 | 1.7 | 0.00 | 0.00 | 0.00 | 73 | 1006.4 |
| 20260506003031 | 83 | 266 | 0.0 | 3.5 | 0.00 | 0.00 | 0.00 | 72 | 1006.2 |
| 20260506001527 | 83 | 222 | 0.0 | 4.3 | 0.00 | 0.00 | 0.00 | 72 | 1006.1 |
| 20260506000027 | 83 | 254 | 0.9 | 3.5 | 0.00 | 0.00 | 0.00 | 71 | 1006.1 |
| 20260505234530 | 83 | 209 | 0.0 | 4.3 | 0.00 | 0.00 | 0.00 | 71 | 1006.0 |
| 20260505233032 | 83 | 247 | 0.9 | 3.5 | 0.00 | 0.00 | 0.00 | 70 | 1005.9 |
| 20260505231536 | 84 | 269 | 1.7 | 4.3 | 0.00 | 0.00 | 0.00 | 70 | 1005.8 |
| 20260505230028 | 84 | 230 | 0.0 | 4.3 | 0.00 | 0.00 | 0.00 | 69 | 1005.6 |
| 20260505224528 | 84 | 251 | 0.9 | 4.3 | 0.00 | 0.00 | 0.00 | 68 | 1005.6 |
| 20260505223033 | 85 | 153 | 1.7 | 5.2 | 0.00 | 0.00 | 0.00 | 68 | 1005.6 |
| 20260505221600 | 85 | 224 | 1.7 | 5.2 | 0.00 | 0.00 | 0.00 | 67 | 1005.6 |
| 20260505220046 | 86 | 184 | 1.7 | 4.3 | 0.00 | 0.00 | 0.00 | 66 | 1005.8 |
| 20260505214532 | 85 | 264 | 1.7 | 7.8 | 0.00 | 0.00 | 0.00 | 66 | 1006.0 |
| 20260505213028 | 86 | 233 | 2.6 | 6.1 | 0.00 | 0.00 | 0.00 | 65 | 1006.3 |
| 20260505211537 | 85 | 277 | 2.6 | 7.0 | 0.00 | 0.00 | 0.00 | 68 | 1006.1 |
| 20260505210028 | 84 | 121 | 1.7 | 7.8 | 0.00 | 0.00 | 0.00 | 69 | 1006.4 |
| 20260505204529 | 84 | 269 | 2.6 | 9.6 | 0.00 | 0.00 | 0.00 | 68 | 1006.6 |
| 20260505203028 | 83 | 282 | 1.7 | 5.2 | 0.00 | 0.00 | 0.00 | 70 | 1007.0 |
| 20260505201527 | 83 | 276 | 1.7 | 5.2 | 0.00 | 0.00 | 0.00 | 71 | 1007.4 |
| 20260505200030 | 82 | 221 | 0.9 | 6.1 | 0.00 | 0.00 | 0.00 | 71 | 1007.4 |
| 20260505194528 | 82 | 293 | 1.7 | 6.1 | 0.00 | 0.00 | 0.00 | 72 | 1007.6 |
| 20260505193035 | 81 | 232 | 2.6 | 5.2 | 0.00 | 0.00 | 0.00 | 72 | 1007.8 |
| 20260505191526 | 81 | 262 | 1.7 | 6.1 | 0.00 | 0.00 | 0.00 | 73 | 1007.8 |
| 20260505190030 | 81 | 170 | 2.6 | 5.2 | 0.00 | 0.00 | 0.00 | 75 | 1007.9 |
| 20260505184530 | 79 | 177 | 0.9 | 4.3 | 0.00 | 0.00 | 0.00 | 77 | 1008.1 |
| 20260505183036 | 79 | 217 | 1.7 | 7.8 | 0.00 | 0.00 | 0.00 | 78 | 1008.5 |
| 20260505181530 | 78 | 196 | 0.9 | 7.8 | 0.00 | 0.00 | 0.00 | 78 | 1008.6 |
| 20260505180027 | 77 | 283 | 2.6 | 6.1 | 0.00 | 0.00 | 0.00 | 80 | 1008.7 |
| 20260505174526 | 77 | 233 | 0.9 | 5.2 | 0.00 | 0.00 | 0.00 | 80 | 1008.9 |
| 20260505173028 | 76 | 0 | 0.9 | 7.8 | 0.00 | 0.00 | 0.00 | 82 | 1008.9 |
| 20260505171528 | 75 | 269 | 0.9 | 3.5 | 0.00 | 0.00 | 0.00 | 82 | 1009.0 |
| 20260505170030 | 75 | 270 | 1.7 | 3.5 | 0.00 | 0.00 | 0.00 | 83 | 1009.1 |
| 20260505164545 | 74 | 274 | 0.0 | 2.6 | 0.00 | 0.00 | 0.00 | 84 | 1009.0 |
| 20260505163028 | 74 | 255 | 1.7 | 6.1 | 0.00 | 0.00 | 0.00 | 85 | 1008.9 |
| 20260505161535 | 73 | 266 | 0.0 | 3.5 | 0.00 | 0.00 | 0.00 | 86 | 1009.1 |
| 20260505153029 | 72 | 263 | 0.9 | 3.5 | 0.00 | 0.00 | 0.00 | 87 | 1009.3 |
| 20260505151527 | 72 | 251 | 0.9 | 7.0 | 0.00 | 0.00 | 0.00 | 87 | 1009.1 |
| 20260505124536 | 71 | 271 | 1.7 | 7.8 | 0.00 | 0.00 | 0.00 | 89 | 1007.9 |
| 20260505123028 | 70 | 269 | 2.6 | 9.6 | 0.00 | 0.00 | 0.00 | 89 | 1007.8 |
| 20260505121533 | 70 | 165 | 2.6 | 7.0 | 0.00 | 0.00 | 0.00 | 89 | 1007.6 |
| 20260505120034 | 70 | 261 | 1.7 | 5.2 | 0.00 | 0.00 | 0.00 | 88 | 1007.4 |
| 20260505114530 | 70 | 237 | 1.7 | 5.2 | 0.00 | 0.00 | 0.00 | 88 | 1007.5 |
| 20260505113027 | 70 | 180 | 2.6 | 10.4 | 0.00 | 0.00 | 0.00 | 87 | 1007.5 |
| 20260505111529 | 70 | 264 | 0.9 | 6.1 | 0.00 | 0.00 | 0.00 | 87 | 1007.5 |